Location: Makanda
(37.6176°N, 89.2090°W)
Time: 14:52:51
(UTC+00:00)

Cosmos 407 Rocket - Pass Details

Date: 23 September 2019
Orbit: 744 x 786 km, 74.0° (Epoch: 20 October)

Event Time Altitude Azimuth Distance (km) Brightness Sun altitude
Rises 01:45:49 0° 334° (NNW) 3,192 7.4 -22.6°
Reaches altitude 10° 01:48:15 10° 329° (NNW) 2,264 6.6 -23.0°
Maximum altitude 01:53:06 45° 257° (WSW) 1,011 4.4 -23.9°
Enters shadow 01:56:54 16° 191° (S) 1,882 5.4 -24.7°
